[[{"header":{"parameterUnit":"m.s-1","parameterCategory":1,"la1":30.2992,"la2":30.254,"lo1":-89.0895,"lo2":-89.0443,"dy":0.0025,"dx":0.0025,"nx":19,"ny":19,"refTime":"2026-05-02T09:00:00:Z","depth":0,"parameterNumber":2,"parameterNumberName":"U-component_of_WINDS"},"data":[0,0,0,0.6387,0.6387,0.6386,0.6386,0.6398,0.6398,0,0,0,0,0,0,0,0,0,0,0,0.6393,0.6393,0.6387,0.6387,0.6386,0.6386,0.6398,0.6398,0,0,0,0,0,0,0,0,0,0,0,0.6393,0.6393,0.6394,0.6387,0.6386,0.6386,0.6398,0.6395,0,0,0,0,0,0,0,0,0,0,0.6393,0.6404,0.6393,0.6394,0.6387,0.6386,0.6386,0.6394,0.6395,0.6403,0,0.6411,0,0.6405,0.64,0.64,0,0,0,0.6383,0.6404,0.6398,0.6394,0.6387,0.6386,0.6386,0.6394,0.6395,0.6404,0.6411,0.6411,0.6405,0.64,0.64,0.6461,0.6461,0,0,0.6383,0.6397,0.6398,0.6399,0.6398,0.6386,0.6386,0.6395,0.6404,0.6411,0.6411,0.6405,0.64,0.64,0.6461,0.6461,0,0,0,0.6386,0.6397,0.6391,0.6399,0.6397,0.6386,0.6386,0.6403,0.64,0.6412,0.6405,0.64,0.64,0.646,0.6461,0.6498,0,0,0,0.6386,0.6398,0.6391,0.6399,0.6397,0.64,0.6394,0.6399,0.64,0.6405,0.64,0.6401,0.6459,0.646,0.6495,0.6513,0,0,0,0.6391,0.6399,0.6401,0.64,0.64,0.6399,0.6397,0.6399,0.6397,0.64,0.6401,0.6459,0.646,0.6493,0.651,0.6534,0,0,0,0.6401,0.6433,0.6402,0.6435,0.64,0.6421,0.6396,0.6412,0.6419,0.64,0.6459,0.6461,0.6493,0.6508,0.6532,0.6558,0.6569,0,0,0.6449,0.6439,0.6458,0.643,0.646,0.642,0.6457,0.6451,0.644,0.6455,0.6456,0.6496,0.651,0.6534,0.6627,0.6636,0,0,0,0.6478,0.6492,0.6497,0.6504,0.65,0.6499,0.6486,0.6484,0.6496,0.645,0.651,0.6518,0.6532,0.6543,0.6551,0.6563,0.6466,0.6466,0.6466,0.6565,0.6548,0.6579,0.6563,0.657,0.6557,0.6562,0.6558,0.6539,0.6554,0.6558,0.6617,0.6631,0.6637,0.6649,0.6569,0.657,0.657,0.657,0.6635,0.6653,0.6627,0.6647,0.663,0.6648,0.6637,0.6624,0.6639,0.6611,0.6623,0.6595,0.6647,0.6658,0.6572,0.6572,0.6572,0.6571,0.6571,0.6691,0.6697,0.6694,0.6703,0.6713,0.6696,0.6712,0.6695,0.668,0.6692,0.6696,0.6695,0.6694,0.6695,0.6695,0.6695,0.6695,0.6695,0.6695,0.6752,0.6747,0.6761,0.6761,0.6764,0.6766,0.6755,0.6758,0.6758,0.6745,0.6745,0.6727,0.6655,0.6638,0.6699,0.6698,0.6698,0.6697,0.6697,0.6831,0.681,0.6833,0.6837,0.6836,0.6848,0.6826,0.6835,0.6836,0.6845,0.6824,0.6773,0.6762,0.6756,0.6742,0.6826,0.6826,0.6826,0.6826,0.688,0.6872,0.6893,0.69,0.6904,0.6888,0.6918,0.691,0.6898,0.6898,0.6884,0.6864,0.6858,0.6851,0.6842,0.6829,0.6933,0.6934,0.6934,0.6928,0.6921,0.6948,0.6935,0.6934,0.6933,0.6961,0.6972,0.6955,0.6938,0.6899,0.6894,0.6861,0.6851,0.6834,0.6821,0.6797,0,0]},{"header":{"parameterUnit":"m.s-1","parameterCategory":1,"la1":30.2992,"la2":30.254,"lo1":-89.0895,"lo2":-89.0443,"dy":0.0025,"dx":0.0025,"nx":19,"ny":19,"refTime":"2026-05-02T09:00:00:Z","depth":0,"parameterNumber":3,"parameterNumberName":"V-component_of_WINDS"},"data":[0,0,0,-0.9658,-0.9656,-0.954,-0.954,-0.94,-0.9399,0,0,0,0,0,0,0,0,0,0,0,-0.9702,-0.9701,-0.9659,-0.9656,-0.954,-0.954,-0.94,-0.9399,0,0,0,0,0,0,0,0,0,0,0,-0.9702,-0.9701,-0.9701,-0.9656,-0.954,-0.954,-0.9401,-0.9484,0,0,0,0,0,0,0,0,0,0,-0.9595,-0.9645,-0.9702,-0.9701,-0.9655,-0.9541,-0.954,-0.9488,-0.9479,-0.9457,0,-0.9444,0,-0.942,-0.939,-0.939,0,0,0,-0.9648,-0.9652,-0.9613,-0.9701,-0.9654,-0.9541,-0.959,-0.9483,-0.9473,-0.9446,-0.9442,-0.9436,-0.9417,-0.939,-0.9389,-0.9296,-0.9296,0,0,-0.9655,-0.9685,-0.962,-0.9607,-0.9629,-0.9594,-0.9587,-0.9476,-0.9473,-0.9441,-0.9433,-0.9415,-0.9389,-0.9388,-0.9296,-0.9296,0,0,0,-0.9678,-0.969,-0.9653,-0.9613,-0.9592,-0.9591,-0.9583,-0.9478,-0.9464,-0.9431,-0.9413,-0.9388,-0.9387,-0.9297,-0.9296,-0.9322,0,0,0,-0.9682,-0.9704,-0.9656,-0.9674,-0.9594,-0.9534,-0.9587,-0.9471,-0.9458,-0.9414,-0.9388,-0.9385,-0.9297,-0.9296,-0.9321,-0.9328,0,0,0,-0.9706,-0.9706,-0.9693,-0.9676,-0.9627,-0.9535,-0.9514,-0.9468,-0.9447,-0.939,-0.9385,-0.9297,-0.9296,-0.9321,-0.9327,-0.9311,0,0,0,-0.974,-0.9717,-0.9694,-0.9661,-0.9628,-0.9553,-0.9515,-0.9457,-0.9411,-0.9387,-0.9297,-0.9296,-0.9321,-0.9327,-0.9311,-0.9303,-0.9303,0,0,-0.9728,-0.9717,-0.9695,-0.967,-0.9608,-0.9568,-0.9507,-0.9436,-0.9401,-0.9332,-0.933,-0.9321,-0.9327,-0.9311,-0.9293,-0.9294,0,0,0,-0.9701,-0.9685,-0.9662,-0.9621,-0.9567,-0.9519,-0.9454,-0.9426,-0.9366,-0.9373,-0.9311,-0.9313,-0.9303,-0.9297,-0.9297,-0.9285,-0.9296,-0.9296,-0.9296,-0.9727,-0.9685,-0.9645,-0.9588,-0.9548,-0.948,-0.9442,-0.9393,-0.9362,-0.9348,-0.9327,-0.9321,-0.9316,-0.9316,-0.9304,-0.932,-0.932,-0.932,-0.932,-0.9704,-0.9674,-0.9633,-0.9579,-0.9533,-0.9486,-0.9418,-0.9397,-0.9344,-0.9334,-0.9323,-0.9315,-0.9318,-0.9304,-0.9322,-0.9321,-0.9321,-0.9321,-0.9321,-0.9715,-0.9694,-0.9662,-0.9595,-0.9548,-0.949,-0.9441,-0.9401,-0.9362,-0.9351,-0.9322,-0.9322,-0.9314,-0.934,-0.934,-0.934,-0.934,-0.934,-0.934,-0.974,-0.9703,-0.9668,-0.9607,-0.9573,-0.9523,-0.9452,-0.9416,-0.9366,-0.934,-0.934,-0.9308,-0.9327,-0.9331,-0.934,-0.934,-0.934,-0.934,-0.934,-0.973,-0.9726,-0.9672,-0.9638,-0.9561,-0.9514,-0.9463,-0.9394,-0.9358,-0.9334,-0.9304,-0.9325,-0.931,-0.931,-0.9313,-0.9316,-0.9316,-0.9316,-0.9316,-0.9739,-0.9728,-0.9662,-0.9611,-0.9555,-0.9503,-0.9438,-0.9381,-0.932,-0.9294,-0.9288,-0.9289,-0.9291,-0.9274,-0.9275,-0.9277,-0.927,-0.927,-0.927,-0.973,-0.9711,-0.9666,-0.9609,-0.9545,-0.9489,-0.9426,-0.9364,-0.9294,-0.9268,-0.9272,-0.9274,-0.9276,-0.9279,-0.9253,-0.9255,-0.9258,0,0]}]]